Hall Beach, Northwest Territories

8:02 AM EDT on August 30, 2016 (GMT -0400)
Hall Beach

Weather History for CYUX - October, 2013

Change the Weather History Date:

Friday, October 11, 2013

  Actual Average Record
Temperature  
Mean Temperature 24 °F -  
Max Temperature 32 °F 24 °F 35 °F (2015)
Min Temperature 15 °F 16 °F 6 °F (2005)
Degree Days  
Heating Degree Days 42    
Moisture  
Dew Point 28 °F    
Average Humidity 94    
Maximum Humidity 100    
Minimum Humidity 86    
Precipitation  
Precipitation 0.00 in - - ()
Sea Level Pressure  
Sea Level Pressure 29.99 in    
Wind  
Wind Speed 15 mph ()    
Max Wind Speed 28 mph    
Max Gust Speed 36 mph    
Visibility 5.9 miles    
Events Rain , Snow    
Averages and records for this station are not official NWS values.
T = Trace of Precipitation, MM = Missing Value Source: Averaged Metar Reports

Daily Weather History Graph

Daily Weather History Graph

Search for Another Location

Airport or City:

Trip Planner

Search our weather history database for the weather conditions in past years. The results will help you decide how hot, cold, wet, or windy it might be!

Date:

Astronomy

Oct. 11, 2013 Rise Set
Actual Time 8:17 AM EDT 6:03 PM EDT
Civil Twilight 7:19 AM EDT 7:02 PM EDT
Nautical Twilight 6:12 AM EDT 8:08 PM EDT
Astronomical Twilight 5:01 AM EDT 9:18 PM EDT
Moon 4:53 PM EDT (10/11) 9:59 PM EDT (10/11)
Length of Visible Light 11h 42m
Length of Day
9h 46m
Waxing Crescent, 47% of the Moon is Illuminated
Oct 11
Waxing Crescent
Oct 11
First Quarter
Oct 18
Full
Oct 26
Last Quarter
Nov 3
New

Hourly Weather History & Observations

Time (EDT) Temp. Windchill Dew Point Humidity Pressure Visibility Wind Dir Wind Speed Gust Speed Precip Events Conditions
12:00 AM 15.8 °F - 14.0 °F 93% 30.17 in 9.0 mi SE 2.3 mph - N/A   Scattered Clouds
12:02 AM 15.8 °F 10.2 °F 14.0 °F 93% 30.17 in 9.0 mi ESE 3.5 mph - N/A   Mostly Cloudy
1:00 AM 19.4 °F 11.5 °F 17.6 °F 93% 30.16 in 9.0 mi SE 5.8 mph - N/A   Overcast
2:00 AM 23.0 °F 14.7 °F 19.4 °F 86% 30.16 in 9.0 mi SSE 6.9 mph - N/A   Overcast
3:00 AM 24.8 °F 14.0 °F 21.2 °F 86% 30.15 in 9.0 mi SSE 11.5 mph - N/A   Overcast
4:00 AM 26.6 °F 16.8 °F 23.0 °F 86% 30.16 in 9.0 mi SSW 10.4 mph - N/A   Overcast
5:00 AM 26.6 °F 16.8 °F 24.8 °F 93% 30.15 in 9.0 mi South 10.4 mph - N/A   Overcast
5:26 AM 26.6 °F 15.7 °F 24.8 °F 93% 30.15 in 9.0 mi South 12.7 mph - N/A Snow Light Snow
5:29 AM 26.6 °F 15.7 °F 24.8 °F 93% 30.15 in 9.0 mi South 12.7 mph - N/A Snow Light Snow
6:00 AM 26.6 °F 15.2 °F 24.8 °F 93% 30.14 in 8.0 mi South 13.8 mph - N/A Snow Light Snow
7:00 AM 28.4 °F 16.2 °F 26.6 °F 93% 30.13 in 8.0 mi South 17.3 mph - N/A Snow Light Snow
8:00 AM 28.4 °F 16.2 °F 26.6 °F 93% 30.12 in 12.0 mi South 17.3 mph 25.3 mph N/A Snow Light Snow
9:00 AM 28.4 °F 15.8 °F 26.6 °F 93% 30.09 in 12.0 mi South 18.4 mph 26.5 mph N/A Snow Light Snow
10:00 AM 28.4 °F 14.7 °F 26.6 °F 93% 30.08 in 4.0 mi South 21.9 mph - N/A Snow Light Snow
10:25 AM 28.4 °F 15.1 °F 28.4 °F 100% 30.08 in 3.0 mi South 20.7 mph 27.6 mph N/A Snow Light Snow
11:00 AM 28.4 °F 14.7 °F 28.4 °F 100% 30.07 in 3.0 mi South 21.9 mph 28.8 mph N/A Snow Light Snow
11:29 AM 30.2 °F 16.2 °F 28.4 °F 93% 30.06 in 1.0 mi South 25.3 mph - N/A Snow Light Snow
12:00 PM 30.2 °F 16.5 °F 28.4 °F 93% 30.05 in 1.5 mi South 24.2 mph 29.9 mph N/A Snow Light Snow
12:42 PM 30.2 °F 16.2 °F 28.4 °F 93% 30.03 in 1.0 mi South 25.3 mph - N/A Snow Light Snow
1:00 PM 30.2 °F 17.1 °F 28.4 °F 93% 30.03 in 1.0 mi SSE 21.9 mph 28.8 mph N/A Snow Light Snow
1:10 PM 30.2 °F 16.5 °F 28.4 °F 93% 30.02 in 0.8 mi SSE 24.2 mph - N/A Snow Light Snow
2:00 PM 30.2 °F 15.7 °F 28.4 °F 93% 29.99 in 1.0 mi SSE 27.6 mph - N/A Snow Light Snow
2:28 PM 30.2 °F 16.5 °F 30.2 °F 100% 29.98 in 0.8 mi SSE 24.2 mph 29.9 mph N/A Snow Light Snow
3:00 PM 30.2 °F 15.9 °F 30.2 °F 100% 29.96 in 0.8 mi SSE 26.5 mph - N/A Snow Light Snow
3:40 PM 30.2 °F 15.9 °F 30.2 °F 100% 29.94 in 0.8 mi South 26.5 mph - N/A Snow Light Snow
4:00 PM 30.2 °F 15.7 °F 30.2 °F 100% 29.93 in 0.6 mi South 27.6 mph - N/A Snow Light Snow
4:13 PM 30.2 °F 16.2 °F 30.2 °F 100% 29.93 in 0.8 mi South 25.3 mph 32.2 mph N/A Snow Light Snow
4:22 PM 32.0 °F 18.9 °F 30.2 °F 93% 29.93 in 2.0 mi South 24.2 mph 31.1 mph N/A Snow Light Snow
4:38 PM 32.0 °F 18.6 °F 30.2 °F 93% 29.93 in 1.5 mi South 25.3 mph - N/A Snow Light Snow
5:00 PM 32.0 °F 18.1 °F 30.2 °F 93% 29.92 in 1.0 mi South 27.6 mph - N/A Snow Light Snow
5:16 PM 32.0 °F 18.9 °F 30.2 °F 93% 29.91 in 0.8 mi South 24.2 mph 31.1 mph N/A Snow Light Snow
5:38 PM 32.0 °F 18.4 °F 30.2 °F 93% 29.91 in 2.0 mi South 26.5 mph 32.2 mph N/A Snow Light Snow
6:00 PM 32.0 °F 18.9 °F 30.2 °F 93% 29.90 in 5.0 mi South 24.2 mph 32.2 mph N/A Snow Light Snow
6:48 PM 32.0 °F 18.4 °F 30.2 °F 93% 29.88 in 7.0 mi South 26.5 mph 35.7 mph N/A Rain , Snow Light Freezing Rain
7:00 PM 32.0 °F 18.4 °F 32.0 °F 100% 29.88 in 8.0 mi South 26.5 mph 33.4 mph N/A Rain , Snow Light Freezing Rain
7:29 PM 32.0 °F 19.8 °F 30.2 °F 93% 29.89 in 9.0 mi South 20.7 mph 31.1 mph N/A Rain , Snow Light Freezing Rain
8:00 PM 32.0 °F 18.6 °F 30.2 °F 93% 29.86 in 9.0 mi South 25.3 mph 31.1 mph N/A Rain , Snow Light Freezing Rain
8:20 PM 32.0 °F 19.2 °F 30.2 °F 93% 29.86 in 9.0 mi South 23.0 mph 32.2 mph N/A   Overcast
8:30 PM 32.0 °F 19.5 °F 30.2 °F 93% 29.87 in 9.0 mi South 21.9 mph 29.9 mph N/A   Overcast
9:00 PM 32.0 °F 18.6 °F 32.0 °F 100% 29.86 in 9.0 mi South 25.3 mph 31.1 mph N/A   Overcast
10:00 PM 32.0 °F 20.5 °F 30.2 °F 93% 29.86 in 9.0 mi South 18.4 mph - N/A   Overcast
10:06 PM 32.0 °F 20.8 °F 30.2 °F 93% 29.86 in 9.0 mi South 17.3 mph 23.0 mph N/A Rain Light Rain
10:18 PM 32.0 °F 20.5 °F 30.2 °F 93% 29.85 in 9.0 mi South 18.4 mph - N/A Rain Light Rain
10:27 PM 32.0 °F 20.8 °F 30.2 °F 93% 29.85 in 9.0 mi South 17.3 mph 23.0 mph N/A Rain Light Rain
10:57 PM 32.0 °F 19.8 °F 30.2 °F 93% 29.84 in 9.0 mi South 20.7 mph - N/A Rain Light Freezing Rain
11:00 PM 32.0 °F 20.5 °F 32.0 °F 100% 29.84 in 9.0 mi South 18.4 mph 24.2 mph N/A Rain Light Freezing Rain
11:20 PM 32.0 °F 20.1 °F 32.0 °F 100% 29.83 in 9.0 mi South 19.6 mph - N/A Rain Light Freezing Rain